GW1367 Weather Reports


Display with metric or nautical units.
time (UTC)temp
F
wind
direction
speed
MPH
gust
MPH
rain 1hr
in
rain 24hr
in
rain mn
in
humidity
%
barometer
mb
20260502214204 79 140 1.0 5.0 0.00 0.01 0.01 40 1015.0
20260502213704 79 118 1.0 3.0 0.00 0.01 0.01 39 1014.9
20260502213204 78 137 2.0 6.0 0.00 0.01 0.01 38 1014.9
20260502212704 79 194 2.0 5.0 0.00 0.01 0.01 38 1015.0
20260502212204 78 165 1.0 7.0 0.00 0.01 0.01 40 1014.9
20260502211704 78 146 3.0 8.0 0.00 0.01 0.01 40 1015.0
20260502211205 79 129 1.0 5.0 0.00 0.01 0.01 41 1015.0
20260502210704 79 196 2.0 5.0 0.00 0.01 0.01 38 1015.1
20260502210204 79 130 1.0 6.0 0.00 0.01 0.01 40 1015.1
20260502205205 79 143 1.0 6.0 0.00 0.01 0.01 41 1015.2
20260502204704 79 110 1.0 6.0 0.00 0.01 0.01 41 1015.2
20260502204204 78 113 2.0 7.0 0.00 0.01 0.01 42 1015.2
20260502203705 78 165 0.0 2.0 0.00 0.01 0.01 41 1015.3
20260502203204 77 230 1.0 5.0 0.00 0.01 0.01 41 1015.3
20260502202704 77 188 3.0 6.0 0.00 0.01 0.01 42 1015.5
20260502201704 78 136 3.0 7.0 0.00 0.01 0.01 42 1015.5
20260502201205 78 115 1.0 7.0 0.00 0.01 0.01 43 1015.6
20260502200204 78 126 2.0 6.0 0.00 0.01 0.01 41 1015.6
20260502195704 78 113 1.0 5.0 0.00 0.01 0.01 43 1015.7
20260502194704 78 170 1.0 6.0 0.00 0.01 0.01 42 1015.8
20260502193704 77 201 2.0 6.0 0.00 0.01 0.01 44 1015.7
20260502193204 76 124 2.0 7.0 0.00 0.01 0.01 43 1015.8
20260502192704 76 165 1.0 6.0 0.00 0.01 0.01 43 1015.8
20260502191704 77 129 2.0 8.0 0.00 0.01 0.01 43 1015.9
20260502191204 77 224 1.0 6.0 0.00 0.01 0.01 47 1015.9
20260502190704 77 142 2.0 6.0 0.00 0.01 0.01 43 1015.8
20260502185704 77 138 2.0 5.0 0.00 0.01 0.01 44 1015.9
20260502185205 77 112 1.0 5.0 0.00 0.01 0.01 44 1015.9
20260502184704 76 143 1.0 5.0 0.00 0.01 0.01 50 1015.9
20260502184204 76 174 2.0 6.0 0.00 0.01 0.01 46 1016.0
20260502183704 76 121 2.0 8.0 0.00 0.01 0.01 47 1016.1
20260502183204 77 140 2.0 6.0 0.00 0.01 0.01 47 1016.1
20260502182705 76 118 1.0 6.0 0.00 0.01 0.01 50 1016.2
20260502182205 76 161 2.0 7.0 0.00 0.01 0.01 48 1016.3
20260502181705 76 128 1.0 7.0 0.00 0.01 0.01 52 1016.4
20260502181205 75 124 2.0 3.0 0.00 0.01 0.01 53 1016.4
20260502180706 75 243 2.0 6.0 0.00 0.01 0.01 51 1016.4
20260502170205 74 120 4.0 7.0 0.00 0.01 0.01 59 1017.0
20260502164205 74 241 2.0 6.0 0.00 0.01 0.01 59 1017.4
20260502163705 73 152 0.0 5.0 0.00 0.01 0.01 61 1017.9
20260502163206 73 204 2.0 5.0 0.00 0.01 0.01 61 1017.7
20260502162705 73 142 1.0 6.0 0.00 0.01 0.01 63 1018.6
20260502162206 73 105 2.0 5.0 0.00 0.01 0.01 62 1018.1
20260502161705 73 110 2.0 5.0 0.00 0.01 0.01 62 1018.4
20260502161205 72 148 0.0 5.0 0.00 0.01 0.01 61 1017.5
20260502160705 72 115 2.0 8.0 0.00 0.01 0.01 63 1018.2
20260502160205 72 119 2.0 7.0 0.00 0.01 0.01 63 1018.0
20260502152205 71 206 3.0 6.0 0.00 0.01 0.01 66 1018.0
20260502151705 71 262 1.0 3.0 0.00 0.01 0.01 65 1017.7
20260502150705 70 134 2.0 3.0 0.00 0.01 0.01 67 1018.2
20260502150205 69 121 1.0 3.0 0.00 0.01 0.01 68 1018.8
20260502130705 58 106 1.0 2.0 0.00 0.01 0.01 90 1055.0
20260502130205 58 216 0.0 1.0 0.00 0.01 0.01 91 1056.9
20260502123706 57 121 0.0 0.0 0.00 0.01 0.01 92 1060.4
20260502122705 57 121 0.0 0.0 0.00 0.01 0.01 92 1060.4
20260502122205 57 121 0.0 0.0 0.00 0.01 0.01 92 1060.1
20260502121205 56 133 0.0 1.0 0.00 0.01 0.01 92 1059.3
20260502120705 56 276 0.0 0.0 0.00 0.01 0.01 92 1059.1
20260502120205 56 276 0.0 0.0 0.00 0.01 0.01 92 1058.6
20260502115705 56 276 0.0 0.0 0.00 0.01 0.01 92 1058.4
20260502115206 56 276 0.0 0.0 0.00 0.01 0.01 92 1058.2
20260502114705 56 276 0.0 0.0 0.00 0.01 0.01 92 1058.0
20260502114205 55 276 0.0 0.0 0.00 0.01 0.01 92 1057.5
20260502113705 55 276 0.0 0.0 0.00 0.01 0.01 92 1057.4
20260502113205 55 276 0.0 0.0 0.00 0.01 0.01 92 1057.4
20260502112705 55 276 0.0 0.0 0.00 0.01 0.01 92 1057.3
20260502112205 55 276 0.0 0.0 0.00 0.01 0.01 92 1057.2
20260502110705 55 276 0.0 0.0 0.00 0.01 0.01 92 1057.5
20260502110205 55 276 0.0 0.0 0.00 0.01 0.01 92 1057.6
20260502105705 55 276 0.0 0.0 0.00 0.01 0.01 92 1057.4
20260502105205 55 276 0.0 0.0 0.00 0.01 0.01 92 1057.5
20260502104705 55 276 1.0 2.0 0.00 0.01 0.01 92 1057.6
20260502104205 55 114 0.0 0.0 0.00 0.01 0.01 92 1057.9
20260502103705 55 114 1.0 3.0 0.00 0.01 0.01 92 1057.7
20260502103205 55 115 1.0 2.0 0.00 0.01 0.01 92 1057.8
20260502102705 55 160 0.0 1.0 0.00 0.01 0.01 92 1058.0
20260502102205 55 116 0.0 1.0 0.00 0.01 0.01 92 1058.0
20260502101705 55 117 0.0 0.0 0.00 0.01 0.01 92 1057.9
20260502100705 55 127 0.0 2.0 0.00 0.01 0.01 92 1057.7
20260502091205 55 187 1.0 3.0 0.00 0.02 0.01 93 1058.9
20260502090705 55 160 1.0 3.0 0.00 0.02 0.01 93 1059.4
20260502090205 55 102 1.0 3.0 0.00 0.02 0.01 93 1059.9
20260502071205 55 241 0.0 2.0 0.00 0.02 0.01 93 1059.3
20260502070705 55 253 0.0 0.0 0.00 0.02 0.01 93 1059.5
20260502065705 55 223 0.0 1.0 0.00 0.02 0.01 93 1058.5
20260502065205 55 102 0.0 2.0 0.00 0.02 0.01 93 1058.7
20260502064705 55 85 1.0 2.0 0.00 0.02 0.01 93 1059.0
20260502064205 55 230 0.0 2.0 0.00 0.02 0.01 93 1058.8
20260502063204 55 124 1.0 3.0 0.00 0.02 0.01 93 1058.6
20260502062705 56 123 1.0 2.0 0.00 0.02 0.01 93 1058.8
20260502062205 56 219 0.0 3.0 0.00 0.02 0.01 92 1059.0
20260502061705 56 154 0.0 3.0 0.00 0.02 0.01 93 1059.0
20260502060705 56 184 0.0 2.0 0.00 0.02 0.01 92 1058.2
20260502060205 55 115 0.0 1.0 0.00 0.02 0.01 92 1058.0
20260502055205 56 232 0.0 2.0 0.00 0.02 0.01 92 1057.7
20260502054705 56 112 0.0 0.0 0.00 0.02 0.01 92 1057.5
20260502054205 56 112 1.0 3.0 0.00 0.02 0.01 92 1057.4
20260502053705 56 110 1.0 2.0 0.00 0.02 0.01 92 1057.3
20260502053204 56 118 0.0 3.0 0.00 0.02 0.01 92 1057.7
20260502052704 56 160 0.0 1.0 0.00 0.02 0.01 92 1057.9
20260502052205 56 123 1.0 2.0 0.00 0.02 0.01 92 1058.2
20260502051705 56 241 0.0 3.0 0.00 0.02 0.01 92 1058.2
20260502051204 56 96 1.0 2.0 0.00 0.02 0.01 92 1058.0
20260502050705 56 106 0.0 1.0 0.00 0.02 0.01 92 1058.2
20260502045705 56 230 1.0 2.0 0.00 0.01 0.01 92 1058.4
20260502045204 56 205 2.0 3.0 0.00 0.01 0.01 92 1058.1
20260502044705 56 205 1.0 3.0 0.00 0.01 0.01 92 1058.0
20260502043705 56 116 0.0 2.0 0.00 0.01 0.01 92 1058.2
20260502043204 56 191 0.0 3.0 0.00 0.01 0.01 92 1058.1
20260502042205 56 128 1.0 2.0 0.00 0.01 0.01 92 1058.2
20260502041704 56 130 0.0 3.0 0.00 0.01 0.01 92 1058.3
20260502041205 56 58 1.0 3.0 0.00 0.01 0.01 92 1058.2
20260502040704 56 111 1.0 3.0 0.00 0.01 0.01 92 1058.1
20260502040205 56 107 1.0 2.0 0.00 0.01 0.01 92 1058.1
20260502035704 56 107 1.0 2.0 0.00 0.01 0.01 92 1058.1
20260502035204 56 89 2.0 3.0 0.00 0.01 0.01 92 1058.4
20260502034704 56 195 0.0 2.0 0.00 0.01 0.01 92 1058.7
20260502034205 56 177 0.0 2.0 0.00 0.01 0.01 92 1059.0
20260502033205 56 265 0.0 2.0 0.00 0.01 0.01 93 1059.4
20260502031204 56 111 1.0 2.0 0.00 0.01 0.01 93 1059.7
20260502030205 56 120 0.0 2.0 0.00 0.01 0.01 93 1060.0
20260502024705 56 97 1.0 2.0 0.00 0.01 0.01 93 1060.2
20260502024204 56 114 1.0 3.0 0.00 0.01 0.01 93 1060.3
20260502023704 56 165 0.0 3.0 0.00 0.01 0.01 93 1060.6
20260502023204 56 205 0.0 2.0 0.00 0.01 0.01 93 1060.7
20260502022705 56 91 1.0 2.0 0.00 0.01 0.01 93 1060.7
20260502022204 57 101 1.0 3.0 0.00 0.01 0.01 93 1060.7
20260502021704 57 143 1.0 2.0 0.00 0.01 0.01 93 1060.7
20260502020704 57 187 0.0 2.0 0.00 0.01 0.01 93 1060.7
20260502020204 57 212 0.0 1.0 0.00 0.01 0.01 93 1060.7
20260502015704 56 216 0.0 2.0 0.00 0.01 0.01 93 1060.7
20260502015204 56 193 2.0 3.0 0.00 0.01 0.01 93 1060.5
20260502014704 56 223 0.0 3.0 0.00 0.01 0.01 93 1060.7
20260502014204 56 118 1.0 3.0 0.00 0.01 0.01 93 1060.2
20260502013704 56 163 0.0 2.0 0.00 0.01 0.01 93 1060.4
20260502013205 56 129 1.0 2.0 0.00 0.01 0.01 93 1060.1
20260502012705 56 83 1.0 2.0 0.00 0.01 0.01 93 1059.8
20260502012205 57 94 1.0 2.0 0.00 0.01 0.01 93 1059.3
20260502011204 56 241 1.0 3.0 0.00 0.01 0.01 93 1058.9
20260502010705 57 169 1.0 2.0 0.00 0.01 0.01 93 1058.5
20260502010204 57 152 1.0 3.0 0.00 0.01 0.01 93 1058.1
20260502005704 57 134 0.0 1.0 0.00 0.01 0.01 93 1058.3
20260502005205 57 255 2.0 3.0 0.00 0.01 0.01 93 1058.5
20260502004205 57 126 1.0 2.0 0.00 0.01 0.01 93 1059.3
20260502002704 57 188 1.0 3.0 0.00 0.01 0.01 93 1059.1
20260502002204 57 76 0.0 2.0 0.00 0.01 0.01 93 1059.6
20260502001704 57 111 0.0 1.0 0.00 0.01 0.01 93 1059.5
20260502001204 57 112 1.0 2.0 0.00 0.01 0.01 93 1059.1
20260502000204 57 258 0.0 3.0 0.00 0.01 0.01 93 1059.8
20260501235204 57 86 1.0 3.0 0.00 0.01 0.01 93 1059.0
20260501234704 57 109 0.0 0.0 0.00 0.01 0.01 93 1058.7
20260501234204 57 109 0.0 2.0 0.00 0.01 0.01 93 1058.3
20260501233704 57 129 0.0 2.0 0.00 0.01 0.01 93 1057.7
20260501233205 57 118 1.0 2.0 0.00 0.01 0.01 93 1057.9
20260501232205 57 222 1.0 3.0 0.00 0.01 0.01 93 1058.5
20260501231204 57 106 0.0 2.0 0.00 0.01 0.01 93 1057.5
20260501230704 57 111 0.0 2.0 0.00 0.01 0.01 92 1057.2
20260501225704 57 215 2.0 3.0 0.00 0.01 0.01 92 1056.5
20260501224205 57 146 0.0 2.0 0.00 0.01 0.01 92 1056.6
20260501223705 57 114 1.0 2.0 0.00 0.01 0.01 92 1056.1
20260501223204 57 115 1.0 2.0 0.00 0.01 0.01 92 1056.4
20260501222704 57 275 2.0 3.0 0.00 0.01 0.01 92 1056.5
20260501222204 57 115 1.0 3.0 0.00 0.01 0.01 92 1056.2
20260501221704 57 178 0.0 3.0 0.00 0.01 0.01 92 1056.0
20260501221204 57 150 2.0 3.0 0.00 0.01 0.01 92 1056.2
20260501215704 58 130 2.0 3.0 0.00 0.01 0.01 92 1057.4
20260501215204 58 109 0.0 0.0 0.00 0.01 0.01 92 1058.0
20260501214704 58 105 2.0 3.0 0.00 0.01 0.01 92 1058.8